Starlink 32369

operational
NORAD ID: 60917 Int'l Des: 2024-154 Owner: SPXS Country: US Constellation: starlink
LEOCIRCULAR

关于 Starlink 32369

正在加载描述...

实时位置

正在加载3D地球...

即将过境

高度历史

Altitude vs Time

uPlot chart will show altitude changes over time

两行轨道根数

1 60917U 24154Q 26034.43743159 -.00000426 00000-0 -22595-5 0 9992
2 60917 53.1600 82.7385 0001292 136.0856 224.0247 15.30192475 81092
Epoch: Feb 3, 2026 • Age: 20 hours

当前状态

高度 480.9 km
速度 7.63 km/s
星下点 -21.34°S, 48.28°E
发射日期 Aug 31, 2024
运行时间 1.4 years
类型 internet

技术详情

分类 Payload
质量 730.00 kg
干质量 700.00 kg
总质量 730.00 kg
长度 0.30 m
直径 4.10 m
跨度 29.00 m
形状 Box + pan
制造商 SPXS
平台类型 Starlink V2M
阶段状态 In Orbit
所有者/国家 SPXS/US

大型星座

Loading constellations...